Theta_e
348 350 350 345 343 342 338 335 334 332 332 333 334 336 340 346 346 345 346 346 347 352 353 351 349 347 346 346 346 343 342 343 343 343 343 344 345 345 344 344 343 343 344 345 347 349 350 350 350 350 349 348 350 351 350 352 354 351 348 347 347 345 343 343 341 338 339 341 343 344 344 344 344 347 351 352 351 351 351 350 348 344 340 341 343
349 350 351 349 349 350 346 340 336 334 334 334 335 335 338 344 348 347 347 348 346 348 351 350 348 346 345 345 345 344 341 341 341 341 342 343 343 344 345 345 344 344 344 343 345 347 349 349 349 349 348 346 349 350 350 353 355 353 351 350 350 350 346 343 340 337 336 336 337 337 337 337 339 344 350 351 350 352 354 353 349 343 343 346 345
351 349 351 350 350 352 354 350 343 339 338 338 338 337 336 341 346 346 347 349 349 347 347 347 346 346 344 343 342 343 341 341 340 339 339 340 341 341 342 344 345 346 344 343 343 344 347 348 347 347 347 345 345 347 348 352 354 353 352 352 352 352 351 350 347 346 344 343 342 339 339 340 341 344 348 349 351 352 353 349 343 341 348 351 348
354 352 352 352 350 351 355 356 352 346 342 341 342 343 340 339 343 345 347 348 349 349 347 346 345 344 343 342 341 341 343 344 345 343 339 338 339 340 339 340 343 346 345 343 343 342 343 346 347 348 348 346 345 346 348 351 353 353 352 351 351 352 352 353 352 352 350 348 346 343 342 343 343 344 345 345 347 347 346 343 339 341 347 349 348
356 356 355 353 352 353 355 356 356 354 350 347 347 349 347 345 344 344 346 348 349 349 348 347 347 346 343 342 341 341 344 347 348 347 344 341 340 340 339 339 341 345 347 345 343 341 341 342 344 346 346 344 345 349 350 350 351 351 351 350 350 350 350 350 351 350 349 347 343 341 340 340 340 340 340 340 341 341 340 341 341 342 344 345 347
355 356 355 352 351 353 354 354 354 356 355 352 351 351 350 349 348 346 346 347 347 348 348 347 348 348 346 345 343 343 345 346 346 347 347 346 344 342 341 341 343 346 347 346 343 340 338 338 338 340 340 339 342 347 351 351 349 348 350 350 350 350 349 350 350 350 350 348 345 340 337 338 338 337 337 341 345 348 346 345 344 343 344 345 346
354 355 354 354 352 352 352 352 352 355 356 354 352 351 349 348 348 348 348 347 346 347 347 347 347 346 346 346 346 344 344 344 343 343 345 345 345 344 342 341 343 346 346 345 343 341 339 338 339 338 338 337 338 341 345 347 346 346 348 349 348 349 349 350 351 351 351 350 347 344 340 339 338 336 335 339 343 347 347 346 345 345 346 347 346
355 355 354 354 354 353 352 351 351 352 354 355 354 351 348 346 346 347 348 348 347 346 346 346 346 345 345 345 345 345 345 344 342 341 341 340 340 341 340 338 340 341 343 343 342 341 340 339 340 339 338 337 337 338 339 340 341 341 344 345 346 348 347 346 347 348 348 347 345 344 343 341 339 337 337 337 338 341 345 347 347 347 347 347 347
353 353 352 352 352 352 351 351 351 351 351 352 353 352 349 347 345 346 347 348 349 346 344 344 346 346 345 344 343 344 343 343 340 339 338 337 336 336 336 336 336 336 337 338 339 339 338 338 337 337 337 337 338 338 337 337 337 337 338 340 343 345 344 343 343 343 342 341 340 341 341 338 336 335 335 334 335 339 344 345 345 343 343 344 344
352 352 351 351 351 351 350 351 351 352 351 350 350 351 350 347 345 345 345 346 349 348 345 343 344 345 345 344 343 343 342 341 339 336 335 335 334 334 334 334 334 333 333 333 333 335 335 336 336 336 338 340 340 340 339 340 340 340 340 339 339 340 341 342 341 339 337 336 334 333 333 331 329 329 329 328 330 335 340 343 343 342 343 343 343
353 353 352 352 352 352 351 351 351 351 351 351 350 350 349 347 346 345 343 344 346 348 347 344 342 343 343 343 343 343 342 342 341 339 337 334 332 333 334 334 334 333 332 331 330 330 331 333 335 339 342 344 344 344 343 343 343 342 342 342 341 340 339 338 336 333 330 329 327 326 326 326 326 326 326 326 326 329 335 341 345 345 346 346 344
353 354 354 353 353 352 351 351 351 351 352 352 351 350 349 348 347 345 344 343 343 346 347 346 343 343 343 343 343 343 343 343 343 343 342 339 336 334 334 334 335 335 334 333 331 330 330 331 332 338 343 345 344 345 345 344 343 342 342 343 342 341 339 337 334 331 328 326 325 325 325 325 325 325 325 325 325 325 328 333 335 336 337 337 336
352 353 355 354 353 354 353 352 352 352 352 353 352 351 350 349 348 346 345 344 343 343 346 346 345 343 343 343 343 344 344 344 344 343 343 343 341 339 338 338 337 336 335 334 333 332 331 331 332 335 339 342 342 343 343 342 341 341 341 341 341 340 339 338 337 336 333 330 328 327 325 325 325 325 325 325 324 324 324 324 325 325 326 327 327
350 351 352 353 353 353 353 352 351 351 352 352 351 352 351 350 348 346 345 344 344 344 345 346 346 345 344 343 343 343 345 345 346 345 344 344 343 343 343 342 341 339 337 335 334 333 332 332 332 332 334 337 339 341 342 342 341 341 341 341 340 340 340 340 340 338 336 333 331 328 327 326 325 325 325 324 324 324 324 324 323 324 324 325 325
347 348 349 350 351 352 352 352 351 351 351 351 352 352 351 350 349 347 345 345 345 345 344 345 347 346 345 344 343 343 344 346 347 348 347 346 345 345 345 344 343 342 341 339 337 335 333 333 333 333 333 333 335 337 339 341 342 343 344 343 343 343 342 342 341 339 336 333 330 328 327 326 325 325 324 325 326 327 328 328 327 327 328 328 328
338 342 345 347 348 349 350 351 351 351 351 351 351 352 351 351 350 349 347 347 348 347 346 345 346 347 347 346 346 344 344 344 344 346 348 348 347 346 346 346 345 344 343 342 341 339 337 335 334 335 337 337 337 336 336 337 338 340 340 341 341 342 342 341 340 339 336 333 330 329 328 327 328 329 329 331 332 333 336 337 335 334 334 333 334
326 331 336 340 343 346 348 349 350 351 351 351 350 351 351 351 351 350 349 348 348 348 348 348 348 347 347 347 347 347 346 345 344 343 345 347 349 349 348 347 345 344 343 343 342 342 341 340 338 338 340 342 342 342 341 341 340 339 338 337 336 336 335 335 335 334 333 332 331 331 331 330 332 335 337 338 338 339 342 342 339 338 339 339 340
320 323 325 328 332 338 343 346 348 349 350 351 351 351 351 351 351 351 351 350 350 350 351 351 350 349 348 348 348 348 348 348 348 347 346 347 348 350 352 352 349 346 345 344 343 342 342 342 342 341 341 342 342 343 343 344 344 344 343 343 341 339 337 336 336 335 334 335 335 334 334 334 335 339 341 342 341 341 342 342 340 341 343 343 343
317 319 321 322 323 326 332 337 342 346 348 350 351 351 351 351 352 352 352 352 352 352 352 353 352 351 351 350 350 350 350 350 351 352 351 351 352 353 355 355 351 348 346 345 344 344 344 344 344 344 344 344 344 342 342 341 341 341 342 343 343 341 337 337 338 338 337 338 338 337 337 337 338 341 343 343 343 342 342 341 341 342 345 345 344
314 315 318 321 321 321 324 327 330 335 341 345 349 350 350 351 351 352 353 353 353 353 353 354 354 352 352 352 351 351 351 351 352 353 353 353 353 353 355 355 351 347 346 346 346 346 346 346 346 346 347 347 348 347 347 345 344 343 341 341 340 338 336 336 338 338 337 339 339 340 341 342 342 344 344 344 344 343 342 341 340 341 344 344 344
314 314 315 317 316 317 320 323 323 326 329 334 340 345 348 350 351 351 353 353 353 354 353 353 353 352 352 352 353 352 352 351 351 351 351 352 353 352 353 354 353 350 349 347 347 347 348 349 350 349 349 350 350 350 350 350 350 349 348 347 346 345 344 343 343 343 342 343 343 344 345 346 347 348 348 348 347 345 343 342 339 339 341 341 341
317 319 317 316 314 314 315 318 320 324 327 327 330 335 341 345 348 350 351 351 352 352 353 353 353 353 353 353 353 353 354 353 352 350 349 350 351 352 353 354 353 353 351 349 347 347 347 348 350 351 351 352 352 351 351 351 351 352 352 352 351 352 352 351 351 350 350 349 349 349 350 350 350 350 350 350 349 348 347 345 343 341 340 340 339
320 324 323 320 315 313 314 314 315 323 330 328 324 327 332 336 340 343 345 347 349 350 351 352 352 352 353 354 354 354 354 353 352 350 349 349 349 351 353 353 354 354 353 351 350 348 348 348 350 352 353 353 354 353 353 353 354 354 354 354 354 354 355 355 354 354 354 354 354 353 353 353 352 351 350 348 348 348 349 349 349 348 347 346 345
318 322 322 318 313 312 314 313 313 320 327 324 319 323 327 329 334 338 339 341 346 348 348 349 351 351 352 352 353 354 354 353 352 350 349 349 350 352 352 353 354 354 352 350 349 349 350 351 352 353 354 355 355 355 355 356 356 356 356 357 357 357 356 357 356 356 356 356 356 356 355 354 353 352 350 349 347 348 348 349 350 351 351 350 348
315 316 315 313 311 312 313 313 312 314 317 317 319 326 330 331 334 337 336 336 340 345 346 346 347 348 349 349 350 352 352 353 353 353 352 352 351 351 352 353 353 352 350 347 346 348 351 354 354 354 354 355 355 355 356 356 356 357 358 358 358 358 357 357 357 357 357 356 356 356 355 355 355 354 354 354 353 352 350 348 347 348 348 349 350
311 311 310 310 311 311 311 312 312 313 316 321 328 334 337 337 335 337 338 336 335 338 343 346 347 347 347 347 348 349 351 352 352 352 353 353 352 352 352 352 350 348 347 348 349 352 354 355 355 354 354 355 355 355 355 355 356 357 358 358 358 358 357 358 358 357 357 357 356 356 356 355 355 355 356 356 356 355 354 351 349 347 345 346 349
309 308 309 310 310 310 311 312 314 318 324 331 336 337 337 336 335 337 340 341 337 334 338 343 345 346 347 347 347 346 347 349 351 352 352 352 352 352 352 351 350 349 351 352 353 354 355 355 355 355 354 354 355 355 355 355 355 355 356 356 357 357 356 357 357 356 356 357 356 356 356 356 356 356 356 356 356 356 356 355 354 352 348 346 346
309 308 308 309 310 313 317 319 322 325 328 332 335 335 333 333 335 338 340 342 341 339 337 336 336 336 338 338 337 334 332 335 340 345 349 351 352 353 353 352 352 352 353 354 353 354 354 355 355 355 354 354 354 354 354 354 353 354 355 357 357 357 357 357 357 356 357 357 357 356 356 356 356 356 356 356 356 356 356 356 356 356 355 351 348
313 309 308 308 311 317 324 326 327 327 328 330 333 333 332 330 331 335 337 337 335 332 327 325 326 326 327 327 326 324 323 324 326 329 334 339 343 347 351 352 353 353 353 353 352 353 354 354 355 355 355 355 354 354 353 353 353 354 355 356 357 358 357 356 356 355 356 356 356 357 357 357 357 356 356 356 356 355 355 356 356 356 356 355 352
315 313 312 310 311 316 322 325 324 323 324 326 327 327 324 322 323 327 327 325 323 323 323 324 325 324 323 322 323 323 323 323 323 323 324 326 329 332 337 342 348 353 354 353 353 353 353 354 354 354 354 354 354 354 354 354 355 355 355 356 356 356 355 354 353 354 354 355 356 356 357 356 356 356 356 356 356 355 355 355 355 355 356 355 354
317 317 317 315 313 314 316 317 319 321 323 324 325 324 322 321 324 326 326 326 328 330 331 331 327 323 321 319 320 321 322 322 323 324 324 325 325 325 327 329 335 341 346 349 351 353 355 355 355 355 355 355 354 352 350 350 351 350 349 348 349 352 354 355 355 355 356 356 356 356 356 356 357 357 357 357 357 356 356 355 354 354 354 354 354
316 317 317 317 316 315 314 314 314 317 322 325 327 328 327 325 323 321 321 324 328 328 327 326 326 325 324 322 319 317 318 320 322 324 324 324 325 325 326 325 325 327 331 335 340 345 348 350 351 350 348 346 343 338 335 335 336 338 340 341 344 350 354 355 354 353 353 352 351 351 353 355 356 357 357 357 357 357 356 356 354 353 353 354 354
316 316 316 316 317 317 317 317 314 314 317 322 324 325 325 323 321 318 317 319 324 325 326 327 329 328 326 322 319 317 318 318 319 320 321 322 323 323 324 324 323 323 325 327 331 334 336 338 339 338 335 333 332 331 332 334 337 339 342 344 347 350 350 350 349 350 350 349 348 349 350 351 352 352 353 354 356 357 357 356 355 354 354 354 353
316 316 316 316 317 317 317 317 315 315 317 320 322 323 323 322 322 321 322 324 326 328 328 327 327 325 322 322 323 323 320 317 318 319 321 323 323 324 324 325 324 324 324 325 328 330 332 334 334 335 335 336 336 338 340 342 343 345 347 349 351 351 349 347 348 350 351 351 352 352 350 348 349 351 352 353 354 356 357 356 355 354 354 354 354
315 316 316 316 316 316 316 315 315 316 319 322 323 324 325 325 325 324 325 327 328 327 326 324 322 321 321 322 323 323 321 322 325 328 328 328 327 326 325 325 326 326 326 327 328 330 332 335 337 338 339 340 340 341 342 342 344 348 352 354 355 354 352 352 353 353 354 354 353 353 351 350 350 351 352 352 354 356 357 356 355 354 354 354 354
316 315 315 315 315 315 315 315 314 315 317 320 323 324 325 326 326 326 326 326 325 325 324 323 322 322 322 323 323 325 329 332 334 334 333 331 328 325 325 326 327 327 328 329 331 332 334 337 340 342 343 343 344 344 345 346 348 351 354 356 357 356 356 356 356 356 356 355 354 353 353 353 352 352 352 353 355 356 357 357 356 355 354 354 354
316 315 315 315 315 315 315 315 314 314 314 316 320 322 324 325 326 326 325 325 324 324 325 326 326 325 325 326 328 332 334 335 335 336 335 331 327 325 325 328 329 329 328 329 333 336 338 339 342 344 346 347 348 349 350 352 353 353 355 356 357 357 357 356 357 357 358 357 356 356 356 355 354 354 355 355 356 357 357 356 356 355 355 355 355
316 316 316 316 316 316 315 315 316 315 315 315 317 319 321 323 325 325 326 326 325 325 326 327 325 324 326 330 332 333 334 334 333 333 332 329 327 326 325 326 327 328 329 331 333 336 338 340 342 343 345 347 349 351 352 353 353 354 355 356 357 357 357 356 356 357 357 357 357 357 357 356 356 355 355 355 356 357 357 356 356 356 356 356 356
315 315 316 316 316 316 316 316 316 316 316 317 317 318 320 321 322 323 324 325 325 324 325 324 321 321 325 329 330 330 330 330 330 329 328 327 326 325 324 324 325 327 328 330 333 336 338 339 341 342 343 345 347 349 351 352 353 354 355 355 355 355 356 356 356 356 356 356 356 357 357 357 356 356 355 355 354 355 355 356 356 356 356 356 356
313 314 314 315 315 315 316 316 317 317 317 317 317 318 319 320 322 323 323 324 324 322 322 321 321 322 325 327 327 327 328 328 327 327 327 326 325 323 322 323 324 325 326 328 330 334 336 337 338 340 342 344 346 345 345 347 350 352 353 352 352 352 353 354 354 355 355 356 356 356 356 356 356 356 356 355 355 355 355 356 356 356 356 356 356
311 311 312 313 313 314 315 316 316 317 317 317 318 318 319 319 321 322 323 323 324 323 322 323 324 325 326 326 326 326 326 326 326 326 326 325 324 323 322 322 322 323 325 326 327 329 330 331 333 335 338 341 343 343 343 344 346 348 349 350 350 350 351 352 352 353 354 355 355 355 356 357 357 357 356 356 356 356 356 356 356 356 356 357 357
309 310 310 310 311 312 313 314 315 316 316 316 317 317 318 318 319 320 321 322 323 323 323 324 324 324 324 325 325 325 325 325 325 325 325 324 323 322 322 322 321 322 324 325 326 327 328 328 329 331 332 334 337 339 340 341 342 343 344 344 345 346 348 350 351 352 352 353 353 354 355 355 356 356 356 357 357 357 357 357 356 356 357 357 357
309 309 309 309 310 311 312 313 314 315 315 315 316 317 318 318 319 320 321 322 322 323 323 323 323 323 323 324 324 324 324 324 324 324 324 323 322 322 322 321 321 321 323 324 325 326 327 328 328 329 330 331 332 333 335 336 337 338 338 339 339 340 342 344 346 347 348 349 350 351 353 354 354 354 355 355 356 356 356 356 356 356 356 356 356
308 308 308 308 309 310 310 311 312 313 314 315 315 316 317 318 319 320 321 322 322 322 322 321 322 322 323 324 324 323 323 323 322 322 321 321 321 321 321 320 320 321 322 323 324 325 327 328 328 329 330 331 331 332 332 333 333 333 334 334 335 336 337 339 341 342 343 344 344 345 346 348 350 351 351 352 353 353 354 354 354 355 355 355 356
306 306 306 307 307 308 309 309 310 312 313 314 315 316 316 317 318 319 320 321 321 322 322 322 322 322 323 323 323 322 322 322 321 320 319 319 320 320 320 319 319 321 322 323 323 324 325 326 328 328 329 330 330 331 332 332 332 332 332 333 333 334 335 337 338 339 339 340 340 341 341 342 344 344 345 346 348 348 350 351 352 352 353 354 355
304 304 304 305 306 307 307 308 308 310 311 312 313 314 315 315 316 317 317 319 320 321 321 322 322 322 322 322 322 322 322 321 321 321 320 320 320 320 319 318 318 320 321 322 322 323 323 325 326 327 328 328 329 330 331 332 332 332 333 333 334 335 336 336 337 337 338 338 339 340 340 340 341 341 342 342 344 345 346 347 348 349 350 351 352
302 302 303 304 305 306 307 308 308 309 310 311 311 312 313 314 315 316 316 316 317 319 320 321 321 321 321 321 321 321 321 321 320 320 319 319 318 318 317 317 318 319 319 319 320 321 321 322 323 324 325 326 327 328 329 330 331 332 333 334 335 335 336 336 337 337 337 338 339 340 340 341 342 342 343 343 344 345 346 347 347 348 348 349 349
301 302 303 304 305 306 306 307 308 309 310 310 311 311 311 312 314 315 316 317 317 318 319 319 319 319 319 319 319 319 319 319 318 318 317 316 316 316 315 316 317 317 317 316 317 318 318 319 320 321 322 323 324 326 328 330 331 332 333 334 335 335 336 337 337 337 338 339 340 341 341 342 342 343 343 343 344 344 345 346 346 347 347 347 346
302 303 303 304 304 305 305 306 307 308 309 310 310 311 311 311 312 314 315 316 317 317 317 317 317 318 318 318 318 318 317 317 317 316 316 315 314 314 314 315 315 315 315 315 315 316 316 317 318 319 321 322 323 325 327 328 329 330 331 333 334 335 336 337 337 337 338 338 339 339 339 339 340 340 340 340 340 341 341 342 343 343 343 343 343
301 302 302 302 303 303 304 305 306 306 307 308 309 310 311 311 311 312 313 314 315 315 315 315 315 316 316 317 317 317 316 316 316 315 315 314 314 314 314 315 315 315 315 315 315 315 316 317 318 319 320 321 322 324 325 326 327 328 330 330 332 333 333 334 334 334 335 335 336 336 336 336 336 336 337 336 336 336 336 336 337 337 337 337 338
299 300 300 300 301 301 302 303 304 305 306 307 308 308 309 310 311 311 312 312 313 313 313 314 314 314 315 315 315 315 315 315 315 314 314 314 314 314 314 314 315 315 314 314 314 314 315 316 318 319 320 321 322 322 323 323 324 325 326 327 327 328 328 329 329 330 331 331 331 331 332 332 333 333 333 332 331 331 331 331 331 331 332 332 332
Wind_Speed
26 25 24 23 23 23 23 23 23 22 21 21 21 20 19 18 17 17 16 16 15 16 16 16 16 16 16 16 15 14 14 14 14 12 12 12 11 11 11 10 10 10 11 12 12 13 13 12 12 12 12 12 12 14 14 11 9 8 8 10 11 11 12 15 16 15 13 13 15 16 14 12 11 9 9 11 13 14 14 14 15 16 15 14 13
25 25 24 23 23 22 22 22 23 23 22 21 21 20 20 20 19 18 17 16 16 18 19 19 18 17 17 17 17 16 15 14 15 14 13 13 13 13 13 12 11 11 11 12 12 12 14 13 13 13 12 12 12 13 14 11 7 6 6 7 7 8 9 11 13 14 13 13 14 16 15 14 12 9 9 10 11 13 14 16 17 16 14 14 15
26 25 24 24 23 22 22 21 21 23 23 23 22 21 21 20 20 19 19 18 18 18 20 20 20 18 17 17 18 18 17 15 15 15 15 15 15 14 15 13 11 11 11 12 12 12 14 13 12 12 12 12 12 12 13 11 8 7 8 8 8 8 8 8 9 11 12 12 11 12 12 12 12 11 11 12 13 14 16 18 18 17 15 15 16
26 25 25 25 24 23 23 22 21 22 23 24 23 23 22 21 21 21 20 20 21 20 20 20 20 20 19 18 18 19 18 17 17 17 16 17 16 16 16 14 12 12 11 12 13 13 13 14 14 13 13 13 13 11 12 12 12 12 11 11 10 10 9 9 10 11 12 13 12 11 10 12 13 12 12 13 15 16 17 17 16 15 14 15 17
25 26 25 24 24 24 24 24 23 22 22 23 23 22 22 22 22 22 22 23 23 22 22 22 21 21 21 21 20 19 19 19 19 19 18 18 17 16 16 16 15 14 14 14 15 14 14 15 15 15 15 14 13 12 12 13 14 15 14 14 13 12 12 11 11 11 13 13 12 10 10 11 12 12 13 13 13 13 13 14 14 15 15 15 16
23 24 25 25 26 26 26 26 24 24 24 24 24 24 23 23 22 23 23 24 24 23 23 23 23 23 22 22 22 21 21 22 22 22 21 20 19 18 17 17 18 17 16 16 17 16 16 16 16 16 16 16 15 14 14 15 15 15 16 16 15 14 13 12 11 11 12 12 12 11 10 10 11 11 10 10 11 12 13 13 14 14 14 13 12
21 21 22 23 25 26 28 27 25 26 27 26 27 27 26 26 24 23 23 23 25 25 24 24 24 24 24 23 24 23 23 24 24 23 23 21 21 21 20 19 19 20 20 19 18 18 17 17 17 16 17 17 16 16 16 17 16 15 15 16 15 15 15 15 14 13 13 14 15 14 12 11 11 11 10 10 11 12 13 14 14 12 12 11 12
19 20 19 20 22 24 27 27 25 27 29 28 28 29 28 28 27 25 24 24 25 24 24 26 25 24 25 25 24 24 25 26 26 25 25 24 22 22 22 21 20 21 22 22 21 21 20 19 19 19 19 18 17 17 16 17 17 16 15 15 15 15 16 16 16 16 16 17 16 15 14 14 14 14 13 13 12 11 10 13 15 14 13 12 13
18 20 20 20 21 22 23 25 27 29 30 31 30 29 30 29 28 27 25 24 27 25 23 25 27 26 25 25 25 25 26 27 27 27 27 26 25 24 23 23 22 22 22 23 23 23 22 21 21 20 20 19 18 18 17 15 15 15 15 15 15 16 16 16 16 16 16 16 16 15 15 15 15 15 15 15 13 11 10 13 15 16 15 15 15
12 14 16 17 18 19 20 23 27 31 33 34 32 29 29 28 27 27 25 24 26 28 24 23 26 27 27 26 25 25 26 26 26 26 27 27 27 26 25 25 25 24 24 23 23 23 22 22 21 21 21 20 18 17 16 15 15 16 16 16 17 17 18 18 17 17 17 17 17 16 17 17 17 17 18 17 15 14 12 13 14 15 16 17 17
7 6 8 11 14 16 18 20 24 28 31 33 32 30 28 26 24 26 27 25 25 27 28 26 25 27 29 29 27 27 26 25 24 24 25 26 27 27 27 27 27 27 27 26 25 24 23 22 21 20 21 21 21 19 18 18 18 19 19 19 19 19 20 20 20 19 19 20 19 19 20 20 19 19 19 20 19 17 15 14 15 16 17 19 20
8 7 5 6 9 12 15 16 18 22 26 29 31 29 27 25 23 23 26 27 26 26 29 30 28 26 28 31 30 29 28 26 25 24 24 25 26 27 28 29 29 30 30 29 28 27 26 25 24 23 22 22 22 23 23 23 22 22 22 22 23 23 24 23 23 23 23 23 23 22 22 22 22 21 21 21 21 21 20 19 19 20 21 22 24
8 8 7 6 7 7 10 13 14 17 21 25 27 26 25 25 25 23 23 26 27 27 28 31 31 29 29 30 31 30 29 28 26 25 24 23 24 25 27 28 29 29 30 31 31 30 29 28 27 26 25 25 24 23 25 25 25 25 25 25 26 26 26 25 24 24 24 25 25 25 24 24 24 24 23 23 24 24 24 23 23 24 24 25 26
4 5 5 5 6 7 8 9 11 13 16 19 21 22 21 22 24 24 23 24 27 29 28 28 30 32 32 32 31 29 27 27 27 28 27 25 23 23 25 28 28 28 28 29 30 31 30 30 29 29 28 28 27 26 26 25 25 26 27 28 28 27 27 26 25 25 25 26 27 27 26 26 27 26 25 24 26 27 27 26 26 26 27 27 27
2 1 2 3 5 7 7 8 10 12 13 16 19 20 19 19 20 21 23 25 27 30 31 29 28 29 31 32 32 30 28 25 25 26 27 28 27 26 26 27 29 29 29 28 29 29 30 30 31 31 30 30 29 29 28 28 28 27 27 28 29 28 28 28 28 28 29 29 30 30 29 28 28 27 25 23 24 24 24 25 26 26 27 27 27
7 4 1 1 3 5 7 8 11 12 12 15 18 20 20 20 19 20 23 25 27 30 33 32 31 30 29 30 31 32 32 30 29 27 26 26 28 29 30 30 30 30 30 30 29 29 29 30 30 31 31 31 30 29 29 29 30 30 30 31 31 31 32 32 31 32 32 33 33 32 31 29 27 25 23 21 21 20 20 22 24 24 25 27 28
13 10 6 4 2 2 4 7 9 11 12 14 17 19 20 20 21 22 24 26 28 30 32 34 34 34 33 33 32 32 33 34 35 35 33 30 28 29 31 33 34 34 33 32 31 31 30 30 30 31 32 32 31 30 29 29 30 32 33 34 34 35 36 36 34 34 35 35 35 34 33 31 28 25 23 21 20 19 20 23 23 23 24 27 28
14 13 12 10 8 6 3 3 6 9 11 14 15 16 17 18 20 22 24 27 28 30 31 32 33 35 35 36 37 36 36 36 36 37 38 37 34 31 29 30 33 35 35 34 33 33 33 33 32 33 33 34 34 33 32 31 31 32 33 34 35 37 38 37 36 37 37 37 36 36 35 34 31 28 25 23 22 22 23 26 25 24 26 29 29
13 13 12 12 12 11 9 7 5 6 9 12 15 16 17 17 18 19 22 25 26 28 29 30 31 32 33 35 36 37 37 37 37 36 36 36 36 34 30 27 29 32 34 35 36 35 35 35 35 35 35 35 35 36 36 35 36 37 37 36 38 41 42 41 39 39 39 38 38 38 37 36 34 32 29 27 25 24 26 26 25 26 28 30 29
12 11 11 10 12 12 11 9 9 8 8 9 13 15 17 17 18 18 19 21 23 25 27 29 30 30 31 32 33 33 34 35 34 34 35 34 35 34 32 29 29 31 33 35 36 37 38 38 37 38 38 37 37 37 37 38 39 40 40 41 43 45 45 44 42 41 41 40 39 38 37 36 35 33 32 30 29 28 28 28 27 27 29 30 30
11 10 9 8 11 12 11 10 11 11 10 8 9 13 16 18 19 19 19 19 20 21 22 25 28 29 30 30 30 29 29 30 31 32 32 32 32 31 30 30 32 33 35 36 37 37 38 40 41 41 40 40 40 39 38 37 37 38 39 40 41 41 41 41 41 41 40 40 39 38 37 36 34 33 32 31 30 29 29 28 28 28 28 30 30
11 11 9 7 10 12 10 10 11 11 12 12 10 9 12 15 17 20 20 20 20 20 20 20 22 24 27 27 27 25 24 25 29 31 30 29 29 29 28 29 31 32 34 36 38 39 39 39 40 41 40 41 41 40 38 36 34 34 34 35 35 33 33 34 35 36 37 37 37 37 37 36 36 36 36 35 33 32 30 29 29 28 28 29 29
8 9 9 9 12 13 11 11 12 12 12 13 13 11 9 10 12 15 18 20 20 21 21 20 20 21 22 23 23 23 23 25 29 30 30 29 28 28 28 30 31 31 33 34 36 38 38 36 35 36 37 37 38 37 35 32 30 30 31 30 30 28 28 28 29 30 32 32 33 34 35 35 36 37 37 37 36 35 33 31 29 28 28 28 29
7 8 10 12 14 15 13 12 12 11 10 13 15 13 9 8 8 9 12 15 17 17 17 18 19 19 18 18 18 20 22 26 28 29 29 30 30 29 30 30 31 32 34 36 35 34 33 33 32 32 33 33 33 31 29 27 27 27 28 28 28 28 27 27 27 27 29 31 33 34 34 33 33 34 33 32 33 34 35 34 33 32 31 31 31
10 11 12 14 15 15 14 14 13 11 11 12 12 10 8 8 8 9 11 11 11 12 11 11 12 12 12 12 13 15 19 21 23 24 26 28 30 31 29 28 29 31 32 33 32 30 30 30 30 30 31 30 29 29 28 28 28 29 29 30 30 31 31 30 29 29 31 32 34 35 36 34 33 32 31 30 30 31 32 34 36 38 38 37 34
11 12 13 14 14 15 15 15 15 13 11 8 7 7 8 9 10 11 12 11 8 8 8 7 7 7 8 8 10 12 14 16 17 18 20 22 23 24 24 25 25 26 27 27 27 26 28 29 30 31 31 31 31 32 31 31 31 31 31 31 32 32 32 32 33 33 34 36 38 39 39 38 35 34 33 32 32 32 31 31 34 36 38 39 39
12 12 12 13 13 14 14 14 13 11 8 6 5 6 7 9 11 11 11 10 9 9 9 9 8 8 8 8 8 9 10 12 14 15 17 17 17 19 22 23 22 22 23 23 22 23 26 30 32 33 34 35 36 36 35 34 35 35 35 35 35 36 35 35 35 35 37 39 41 42 43 41 40 38 36 35 35 33 31 32 33 34 34 35 38
12 11 11 11 11 11 11 11 10 9 6 4 4 6 6 7 8 8 8 9 11 12 14 14 14 14 14 13 12 11 11 12 14 15 15 15 16 17 19 19 19 19 20 21 21 23 25 29 32 34 35 37 38 38 38 38 38 39 40 39 39 40 40 39 38 39 41 42 44 45 45 44 44 42 40 40 39 36 33 34 35 35 35 34 37
13 12 11 10 9 8 7 8 8 9 9 9 10 11 10 9 10 12 12 12 14 17 18 18 17 17 18 18 18 18 18 19 20 20 18 17 16 18 19 19 20 20 20 20 22 23 24 26 28 30 31 33 34 36 37 38 39 40 40 38 37 37 37 37 36 37 39 41 44 46 47 47 46 45 44 43 40 36 34 34 35 35 36 37 38
15 15 14 12 10 8 9 10 11 11 13 14 16 17 17 16 16 16 16 16 16 15 15 16 16 17 17 17 18 20 21 22 23 23 23 21 19 20 22 23 24 24 22 21 23 24 24 25 25 26 26 27 29 30 31 33 34 34 34 32 31 31 32 33 32 30 29 31 34 37 40 43 43 40 38 36 33 30 29 31 31 33 36 38 40
14 16 16 16 14 13 13 13 13 13 13 15 17 19 19 18 16 14 13 13 12 11 12 14 17 19 19 18 16 17 18 20 21 22 23 23 22 22 23 24 25 26 26 25 25 26 25 25 25 25 25 25 25 26 27 28 30 30 30 30 29 29 29 29 30 29 28 28 28 29 30 33 33 32 30 29 28 26 26 27 28 30 32 35 38
13 14 16 17 18 18 16 15 16 16 14 14 15 17 19 20 20 19 16 14 13 15 17 17 18 18 18 18 18 18 18 18 18 18 19 21 22 23 24 24 25 26 27 28 30 29 28 28 29 28 27 27 28 28 29 31 31 31 31 31 29 29 29 29 31 32 32 31 31 30 30 30 31 30 29 29 28 28 28 27 28 29 30 33 35
14 15 16 17 18 19 18 18 17 16 16 16 16 18 21 23 25 25 22 18 17 17 17 16 15 16 17 19 20 20 19 19 18 18 19 19 20 22 23 24 25 26 28 29 31 31 31 31 32 32 31 31 30 30 30 31 31 30 31 30 29 29 29 29 30 32 33 33 34 34 32 32 32 32 32 32 32 32 31 30 30 29 30 32 33
14 15 15 16 17 18 18 19 18 15 14 14 15 18 21 23 24 24 22 19 17 17 17 17 18 19 19 19 18 19 21 21 20 19 18 18 18 19 20 21 22 25 27 28 30 30 30 30 30 30 29 29 28 28 29 29 28 29 29 28 28 29 28 28 29 31 32 34 36 36 35 35 35 35 35 35 35 35 33 32 31 31 31 32 32
15 15 14 15 17 18 19 20 18 15 13 14 15 17 19 21 22 21 19 18 19 21 21 21 21 20 19 18 18 19 20 19 17 16 15 15 15 16 18 19 19 20 22 25 26 27 26 26 25 25 25 26 26 26 26 26 25 24 22 21 22 25 26 26 28 31 31 32 32 32 33 35 35 35 36 36 36 35 34 32 32 32 32 32 33
14 15 15 15 17 19 20 22 22 19 17 18 18 16 14 15 18 20 20 21 23 25 25 23 20 17 17 18 18 17 14 13 13 13 14 15 17 18 19 18 18 18 19 20 22 23 23 22 21 20 20 20 20 20 20 19 18 17 15 14 16 20 22 23 25 28 29 29 28 28 28 29 30 32 34 35 35 35 34 34 34 34 34 35 35
14 16 16 16 18 20 21 22 24 23 20 20 22 22 18 15 15 19 23 24 23 22 20 18 15 15 16 16 15 14 12 13 14 15 16 18 20 20 19 18 18 19 19 19 19 20 21 20 19 18 17 17 17 16 17 17 17 17 16 16 18 20 21 21 22 24 26 26 26 27 27 27 26 27 29 31 32 32 33 33 34 34 35 35 35
15 16 16 15 17 19 20 21 21 21 19 18 19 22 23 20 17 17 20 21 19 16 15 14 15 16 16 14 14 15 16 17 18 20 21 22 21 20 20 21 21 21 20 20 19 19 19 18 18 18 19 19 17 14 11 11 11 10 11 14 17 19 21 23 24 25 26 27 26 26 28 28 28 26 26 29 31 31 32 33 34 35 35 35 35
15 16 17 17 18 19 20 22 22 21 20 19 19 19 21 21 20 20 20 21 21 19 20 21 21 19 17 17 19 20 20 22 23 24 25 24 22 21 21 23 24 23 22 21 21 21 21 21 21 21 21 22 21 19 17 15 14 14 14 15 16 18 21 24 25 25 26 27 27 26 28 29 28 28 28 30 32 33 33 34 35 35 35 35 34
16 18 19 20 21 21 21 22 22 21 21 21 21 21 21 21 21 21 22 22 24 24 23 21 19 18 18 20 21 21 21 22 24 24 25 26 25 23 22 22 24 25 24 23 23 23 25 26 26 26 25 24 25 26 26 26 26 26 25 24 22 21 21 21 20 20 21 22 24 25 27 28 28 28 29 31 32 33 34 35 35 35 36 36 35
18 20 20 22 23 22 22 21 21 21 20 20 20 22 23 23 23 23 23 23 24 24 22 18 17 18 19 20 22 22 23 24 25 25 25 26 27 27 27 25 24 25 25 24 24 25 26 27 28 29 29 29 29 30 31 32 32 32 31 30 29 27 26 25 23 22 22 22 24 25 25 26 27 28 29 31 33 34 35 36 36 36 37 36 35
19 21 21 22 22 22 22 22 22 22 22 21 21 21 22 24 25 26 26 25 25 24 22 20 20 22 23 23 24 25 25 26 26 25 25 26 28 30 30 28 25 24 24 25 25 26 27 27 28 29 29 30 31 33 35 35 36 37 37 37 36 36 35 34 32 31 29 28 29 29 28 27 28 29 30 32 33 34 36 37 37 37 36 35 34
20 21 21 21 20 20 21 22 22 22 22 22 22 21 21 23 25 26 25 25 25 25 24 24 24 24 24 24 24 25 26 27 28 28 29 30 31 32 31 30 26 23 23 24 25 27 28 28 28 28 28 29 29 31 34 35 37 38 39 39 39 39 40 40 39 38 36 35 36 36 35 35 34 33 33 33 33 34 36 37 38 37 37 35 32
20 20 20 20 19 19 20 21 21 21 21 21 22 22 21 21 23 24 25 25 24 24 25 26 25 24 23 24 25 26 27 28 30 31 33 34 35 35 34 32 28 25 24 24 24 25 26 27 28 28 28 28 28 28 29 31 33 35 35 36 36 36 37 39 40 39 38 38 38 39 39 39 39 39 38 37 36 36 37 37 37 37 37 35 33
19 19 19 19 19 20 21 21 20 19 19 20 21 23 23 21 21 22 23 23 24 24 24 25 24 23 23 25 27 28 29 29 31 33 34 35 36 37 36 34 31 28 26 25 26 25 26 26 27 28 28 27 27 27 27 28 30 31 32 33 33 32 32 33 35 36 36 36 37 38 38 39 39 39 39 40 40 40 40 41 40 39 38 38 37
24 22 21 20 19 20 20 21 21 20 20 21 22 23 24 23 23 22 22 22 23 23 22 22 23 24 25 27 28 29 29 30 30 32 34 36 37 38 38 37 34 30 28 27 27 27 27 26 26 26 27 27 26 26 26 27 28 29 30 30 29 28 28 29 30 31 32 33 33 34 33 33 33 33 33 35 37 39 40 41 41 40 40 39 39
24 21 18 18 18 19 19 20 20 21 21 22 23 23 24 23 23 23 24 23 23 22 21 20 20 22 24 25 26 27 28 28 30 32 35 37 38 38 38 37 34 32 30 29 28 27 26 25 25 26 26 26 25 25 24 23 24 25 26 26 26 26 26 26 26 26 27 27 28 29 28 28 28 29 29 29 31 32 33 35 36 38 39 39 38
17 15 16 17 18 19 19 19 20 20 21 21 22 23 24 23 22 21 22 22 22 22 21 20 20 21 23 24 26 27 27 28 30 32 35 37 38 37 36 35 33 32 31 30 29 27 25 24 25 26 25 25 25 24 22 21 22 22 23 23 24 24 23 23 23 23 24 24 25 25 26 26 27 28 28 29 29 30 31 33 34 34 35 35 34
14 14 16 17 17 17 18 19 19 20 21 21 21 21 22 22 22 21 21 21 21 21 21 21 22 23 25 26 28 28 28 28 30 32 35 37 37 36 34 33 32 31 30 29 28 26 24 24 25 25 24 24 24 23 21 20 21 21 22 22 22 22 22 22 22 23 23 23 23 23 24 25 26 26 27 28 29 29 29 30 31 31 31 30 29
14 14 15 15 16 16 17 18 18 18 18 20 20 20 20 20 21 22 22 23 23 23 23 23 24 25 26 26 27 27 29 30 32 34 35 35 34 33 33 32 32 30 29 28 27 25 24 24 24 24 23 23 23 22 21 20 20 20 21 21 21 21 22 22 22 22 21 21 21 22 23 24 24 25 25 25 24 23 22 22 22 23 23 23 23
14 14 15 15 16 16 17 17 17 17 18 19 20 21 21 21 21 21 22 23 23 23 24 24 24 24 25 25 26 28 30 32 33 34 34 33 33 32 32 32 31 30 29 28 27 25 25 24 24 23 23 23 22 21 19 18 18 18 19 19 19 19 20 20 20 19 20 20 20 21 21 21 21 21 20 19 17 16 15 15 14 14 14 14 13
Wind_Direction
204 206 208 213 217 221 219 215 217 220 221 223 224 221 216 215 217 214 216 220 211 207 221 231 229 230 227 223 224 223 220 220 221 219 216 215 213 214 215 210 207 203 205 212 211 210 212 212 212 212 212 214 214 217 222 227 232 233 231 235 237 241 240 235 238 240 235 235 240 246 255 261 263 272 290 299 305 305 303 308 312 313 316 316 319
203 203 205 208 211 219 227 225 220 220 221 221 224 226 220 215 218 218 215 222 223 214 219 229 230 229 227 225 226 230 229 226 227 224 219 220 221 220 221 219 216 216 216 217 213 211 214 217 217 214 216 220 219 223 223 216 223 244 250 251 253 256 250 241 244 249 248 246 246 249 257 263 264 264 265 271 280 286 291 298 304 308 313 317 319
204 203 204 207 207 210 222 231 229 225 223 221 221 226 226 219 218 218 214 219 228 227 225 230 233 232 228 226 227 231 234 233 233 232 226 223 224 227 229 227 223 226 227 224 222 219 216 217 218 218 220 222 220 224 223 211 212 241 258 265 267 268 267 256 252 258 263 265 264 261 262 266 268 267 264 267 273 280 286 293 299 303 308 314 316
210 207 206 209 209 208 212 223 230 228 227 224 220 223 229 226 221 219 215 216 223 230 233 234 236 236 232 229 227 228 233 236 238 239 236 231 227 228 234 236 230 229 235 237 234 229 222 222 226 227 228 227 223 225 225 214 209 221 239 250 255 263 270 267 265 268 272 276 279 278 273 270 271 275 277 277 277 280 287 294 299 302 306 310 311
215 213 212 211 210 209 209 215 221 222 224 224 221 223 229 231 229 224 218 217 221 228 233 236 237 238 237 235 231 228 229 235 239 241 242 241 233 228 232 237 236 235 238 241 241 237 232 231 233 233 235 234 228 228 235 231 218 215 225 235 241 251 260 264 268 270 272 277 281 281 276 272 273 277 281 285 287 289 294 301 307 312 315 314 307
220 219 218 215 214 213 213 214 214 213 215 217 216 218 223 226 231 234 229 221 220 225 233 236 236 239 241 240 237 233 231 233 238 241 243 243 241 237 235 235 237 240 243 243 241 240 239 239 237 237 239 240 237 235 239 243 237 227 226 231 234 242 249 255 263 268 271 277 284 286 285 282 281 280 282 290 297 302 305 309 316 323 325 322 315
223 221 219 219 218 218 220 223 221 216 216 216 213 213 215 215 219 230 238 234 224 222 229 236 239 240 243 245 242 239 237 236 238 241 244 244 242 241 241 239 237 239 244 247 248 247 247 247 246 244 244 245 244 241 240 244 244 237 234 237 238 239 244 248 253 258 263 270 279 285 290 294 296 297 301 302 300 302 306 311 318 327 330 324 319
224 225 225 225 223 222 224 230 233 226 221 220 218 217 217 216 213 215 226 237 237 229 226 232 241 243 243 247 248 245 242 241 241 241 245 247 245 243 244 245 244 242 243 246 249 252 254 255 254 253 252 252 252 250 248 247 247 243 240 242 243 244 246 248 249 252 257 263 271 279 285 292 298 302 306 306 304 304 307 308 311 318 322 316 311
228 232 236 236 233 230 229 235 239 236 229 225 224 224 223 222 219 214 214 225 236 239 233 229 235 243 245 247 249 250 248 247 246 244 243 245 246 246 246 247 249 248 247 247 248 250 253 255 256 255 257 257 257 255 254 254 255 255 253 250 249 251 254 256 255 257 261 265 270 275 280 286 293 298 301 304 306 306 305 305 306 310 314 311 307
216 224 233 240 242 241 239 240 240 239 235 230 228 227 227 228 230 227 220 217 223 234 238 233 231 237 245 248 249 251 252 253 253 251 248 246 246 246 246 248 250 252 253 254 253 253 253 255 256 257 258 262 263 260 258 259 262 266 267 265 261 260 261 263 264 267 270 273 277 281 283 287 293 297 299 303 305 303 301 302 303 305 305 303 303
171 178 215 232 237 237 234 236 238 239 237 234 231 227 227 235 244 240 231 223 219 224 232 236 235 235 240 246 249 251 253 256 259 260 258 254 251 249 247 246 247 250 254 256 258 258 258 257 257 256 255 258 262 265 266 268 269 270 270 269 267 267 267 267 269 272 274 277 281 285 286 289 294 296 298 302 303 300 297 293 292 294 295 294 296
152 138 153 189 206 217 222 228 235 237 236 234 232 230 230 240 249 245 236 232 228 224 225 230 234 235 237 243 247 250 252 256 259 263 265 263 259 256 253 251 248 247 249 253 256 259 259 259 258 255 253 254 255 258 261 265 267 268 268 267 268 272 274 275 275 276 276 278 280 282 285 289 293 296 298 301 302 299 295 289 287 288 289 289 291
165 158 150 155 167 185 208 221 227 231 232 231 231 235 239 241 241 240 235 232 231 230 227 227 229 231 233 239 246 250 252 255 257 260 264 267 266 263 260 259 257 253 251 251 253 256 257 258 258 255 253 253 253 253 255 258 261 263 265 267 270 273 276 277 277 276 275 276 277 280 284 288 291 295 298 300 298 295 293 292 291 290 289 290 291
175 180 176 183 185 183 197 216 225 229 231 231 231 234 239 239 236 234 230 227 229 232 230 228 229 229 230 234 241 247 252 254 255 257 261 265 268 268 265 263 263 263 260 258 256 256 257 258 259 258 255 253 252 251 252 256 260 263 264 266 269 270 271 272 272 274 275 277 278 281 285 287 289 292 295 295 293 291 292 292 293 291 290 289 290
108 154 186 206 211 207 205 213 222 228 228 228 229 230 232 235 234 232 230 231 233 234 232 231 230 229 229 230 233 238 243 248 253 256 259 262 264 267 266 263 262 263 265 265 263 261 261 260 261 262 263 261 257 255 252 252 256 260 261 263 265 266 267 267 269 272 276 279 281 284 285 286 287 289 291 291 289 289 291 291 290 289 288 287 287
73 80 126 193 226 226 222 220 223 228 230 229 231 231 230 233 235 236 236 236 235 233 232 233 233 232 232 231 232 234 236 241 247 251 256 260 262 263 262 261 260 261 263 266 266 266 266 265 264 264 265 267 267 265 263 259 258 260 261 262 264 265 266 267 269 273 276 280 283 285 286 287 288 290 292 292 290 290 290 287 285 284 283 284 285
57 56 58 57 16 278 249 239 235 234 231 231 235 237 237 239 240 239 238 236 235 233 233 233 235 236 236 236 237 237 238 239 243 248 252 256 258 260 260 259 258 259 262 264 265 266 267 267 267 265 265 266 268 270 270 268 266 266 266 267 268 268 269 271 273 275 279 282 284 286 288 289 290 289 289 286 284 284 281 278 279 280 280 280 283
48 45 44 45 37 22 354 291 261 249 241 236 236 237 238 241 244 243 239 236 235 235 235 236 236 236 237 239 240 241 242 243 243 246 250 254 256 259 263 265 263 261 263 265 264 265 266 266 266 265 264 265 266 267 268 268 268 268 268 270 271 272 273 275 277 279 282 283 284 286 287 288 288 287 284 281 279 276 273 273 277 278 276 276 280
40 37 34 38 38 31 21 3 330 289 266 253 248 245 243 243 245 246 243 240 237 237 238 240 239 239 240 241 241 242 243 245 246 247 249 252 255 255 259 268 271 266 263 264 264 264 265 265 264 265 266 266 266 265 265 265 266 267 268 270 271 272 275 276 276 278 280 280 282 283 284 285 284 282 280 277 274 270 267 268 271 271 272 274 278
28 30 32 37 34 31 26 15 1 342 313 284 268 262 258 255 253 252 249 245 242 240 241 242 242 243 244 245 246 246 246 247 249 250 251 252 255 257 259 265 269 268 264 261 262 263 265 265 265 265 266 268 269 270 269 267 266 266 266 267 268 272 276 276 276 278 279 280 281 281 281 282 281 279 277 274 270 267 265 265 265 266 267 271 275
15 15 24 37 32 27 28 23 13 4 354 332 294 271 265 263 260 258 257 253 249 246 246 246 246 246 246 248 250 249 250 252 252 252 252 253 254 260 264 264 265 268 267 263 261 260 261 263 265 267 268 269 271 272 271 270 268 267 266 266 268 273 276 275 275 278 278 279 280 280 279 279 277 276 274 273 272 270 268 266 265 265 265 267 271
11 4 1 11 16 13 18 24 20 12 6 1 340 297 274 266 263 262 263 263 260 256 253 251 250 247 246 248 251 252 254 256 254 252 253 254 255 260 264 263 263 269 271 269 266 262 259 259 261 264 268 271 273 273 273 272 270 269 268 269 271 274 275 274 275 276 276 276 276 276 275 274 273 271 269 268 269 269 269 269 269 267 267 268 270
2 358 341 335 347 351 356 9 13 9 5 2 357 343 310 281 272 270 268 266 266 265 261 257 256 255 252 251 254 257 259 258 256 254 254 256 260 264 263 261 262 268 273 276 275 270 264 258 257 259 265 270 273 275 275 274 273 271 271 272 273 274 273 272 271 270 270 270 270 270 270 270 271 270 269 269 268 267 266 268 269 268 268 268 270
326 327 318 320 330 333 335 345 355 1 355 346 346 350 343 314 299 296 287 274 265 264 263 260 257 260 262 261 262 264 262 260 259 259 258 259 262 264 263 263 265 267 269 270 272 270 262 254 252 254 260 266 271 274 274 272 272 272 272 273 273 273 271 269 267 266 265 266 266 268 271 273 274 275 276 278 276 271 266 263 264 265 266 268 269
310 308 308 314 319 320 324 329 334 344 346 335 333 348 357 343 330 331 329 310 276 258 259 260 256 259 264 264 264 264 262 262 263 264 262 261 260 261 263 264 265 265 264 265 267 266 258 252 250 252 255 260 265 268 267 267 267 267 267 267 268 268 266 265 264 262 262 264 268 272 276 280 282 283 285 286 283 278 272 266 263 262 264 266 268
306 305 308 311 313 315 319 321 326 337 345 342 342 353 353 341 331 332 341 340 312 274 268 272 268 268 270 268 266 264 261 261 263 263 262 261 259 259 260 260 261 263 265 268 270 265 257 252 251 251 251 252 256 259 261 262 262 261 261 262 263 265 265 264 263 262 262 266 271 275 280 284 286 287 287 285 282 280 279 276 271 266 263 262 262
306 308 311 313 316 318 318 320 329 341 355 6 359 340 326 325 327 328 333 334 320 299 290 289 289 292 292 286 283 281 274 267 262 258 258 260 259 257 257 259 263 267 268 268 268 264 258 254 251 249 248 248 251 255 257 259 261 262 263 263 262 263 263 263 263 263 264 267 271 275 279 281 283 283 283 282 281 281 281 280 278 275 271 265 260
307 307 309 313 318 324 327 329 329 329 330 325 298 283 286 304 312 308 307 309 304 298 295 293 292 293 293 293 293 293 292 287 280 271 265 262 259 256 256 257 259 262 264 265 263 261 259 256 254 252 251 250 252 254 257 260 263 265 267 268 267 265 265 265 265 265 267 268 270 273 276 278 279 280 281 281 281 280 278 277 276 276 277 274 267
308 307 306 307 310 314 315 310 297 286 280 270 253 245 247 263 273 268 264 270 279 286 291 292 293 292 291 291 292 290 289 291 291 287 283 278 270 265 265 263 261 261 263 265 263 261 259 258 258 259 258 257 256 257 258 261 263 266 269 271 271 272 273 272 271 270 271 271 271 272 274 276 277 279 280 280 279 276 274 274 274 275 276 274 270
317 317 313 306 296 282 273 272 272 274 276 274 269 264 265 271 273 270 271 277 284 290 294 295 296 297 295 294 293 291 289 290 291 290 289 287 282 276 273 271 269 267 267 266 264 262 259 259 261 263 264 264 264 264 265 267 268 270 273 275 277 278 278 278 277 277 279 280 278 276 275 274 274 275 276 276 276 274 272 272 273 273 273 271 269
319 322 321 316 305 290 275 268 267 271 278 289 294 293 289 286 282 279 287 297 297 290 287 289 294 299 301 300 296 293 292 292 291 290 289 288 286 283 281 278 276 274 271 268 265 263 261 262 263 265 266 268 270 274 277 279 279 281 284 285 286 285 282 282 282 282 282 283 282 279 273 268 267 267 268 269 272 272 271 271 271 270 270 269 268
310 309 312 312 310 306 299 286 273 263 264 276 288 290 289 289 289 290 292 294 289 285 287 291 293 295 298 301 300 298 297 296 294 292 290 289 288 287 285 284 284 282 278 273 269 266 265 266 268 271 272 274 276 280 282 283 284 285 286 288 287 283 279 280 282 281 279 277 276 274 269 264 263 264 267 269 271 270 269 268 269 270 271 270 269
308 302 302 305 308 309 308 302 292 276 265 266 274 280 284 289 294 297 297 295 292 291 292 291 288 287 292 299 303 301 298 298 299 298 296 293 290 289 288 288 289 288 284 279 275 271 268 267 268 271 273 276 279 281 283 284 286 287 287 287 284 280 278 280 280 279 276 274 274 275 273 270 268 268 270 272 272 272 272 271 271 271 271 271 271
299 298 301 305 307 305 303 301 299 291 280 279 286 290 292 295 299 301 303 300 293 288 284 280 282 289 296 301 300 297 298 302 304 303 300 296 292 291 291 291 290 289 286 282 280 278 275 273 272 273 275 276 279 282 285 287 288 288 288 287 281 278 280 281 277 275 275 276 277 278 277 275 273 273 275 276 275 275 275 275 273 272 271 272 273
300 301 304 306 305 304 304 302 298 290 279 278 285 290 293 296 297 297 296 293 290 289 289 291 294 299 301 299 296 297 302 306 303 295 292 292 293 293 293 292 292 291 290 289 287 284 281 280 279 281 283 284 285 287 289 289 288 287 287 284 276 274 276 277 275 275 277 279 278 279 279 277 276 275 276 276 275 274 275 275 274 273 274 275 275
307 306 303 299 297 299 301 301 299 294 280 270 269 273 281 290 292 287 283 285 288 290 294 301 306 306 303 303 303 301 297 291 285 280 280 287 294 296 295 294 294 295 296 297 297 295 292 290 290 292 294 294 295 295 294 291 290 289 287 284 278 275 275 275 275 278 280 279 277 277 279 278 276 274 273 272 273 273 275 276 275 273 274 274 273
300 301 301 301 301 301 300 300 301 301 294 279 268 265 268 276 286 287 285 285 287 291 297 305 310 311 312 311 306 294 281 272 271 272 277 286 293 295 293 291 291 292 293 296 297 298 298 297 297 301 302 299 296 296 294 292 291 290 287 281 277 275 276 277 279 282 284 281 277 275 276 277 278 277 273 271 271 272 273 274 273 271 271 271 270
293 294 295 296 298 299 299 300 301 304 305 298 282 272 269 269 274 284 287 284 281 280 283 286 293 305 314 307 288 276 274 274 273 275 280 284 287 288 287 287 287 285 284 284 284 285 286 287 287 288 290 288 284 279 273 267 266 269 271 271 269 269 272 276 280 284 286 285 282 280 279 280 281 282 279 274 272 272 273 273 273 272 272 272 272
292 292 289 287 286 287 291 295 297 299 302 302 297 288 281 274 273 279 283 281 276 275 278 281 286 292 294 287 280 278 278 277 278 281 284 286 286 285 284 284 282 279 277 276 276 275 276 276 275 273 274 275 273 268 263 260 260 262 265 270 273 274 275 277 279 282 284 284 282 282 282 281 281 281 279 276 274 274 274 275 275 275 276 276 276
297 295 291 288 288 288 289 291 295 298 300 298 294 290 286 281 277 278 281 281 281 283 285 288 288 286 280 278 280 281 281 280 282 284 287 291 293 292 287 282 278 276 275 274 272 270 269 270 270 269 267 265 265 265 266 267 268 268 268 269 271 271 270 269 269 269 271 273 276 279 281 281 280 277 276 275 273 272 272 273 274 274 274 274 274
304 299 294 292 292 292 291 292 297 301 302 299 293 287 283 279 275 274 275 278 280 282 283 282 278 276 275 275 277 279 280 282 284 285 287 291 294 293 292 290 285 279 275 274 273 271 270 269 269 268 266 264 263 263 264 265 265 266 267 268 269 268 265 262 259 258 259 262 265 269 272 273 274 274 275 276 276 275 274 274 274 273 272 271 273
307 303 300 298 298 298 296 295 294 294 295 296 296 293 287 283 278 274 272 272 272 273 273 272 270 271 274 277 278 277 277 279 282 285 288 290 289 290 293 296 292 283 277 276 276 275 274 273 272 270 269 266 265 264 264 265 265 265 266 267 268 268 267 264 262 260 259 260 261 261 261 262 264 266 270 273 274 274 275 275 276 275 276 277 276
307 305 303 301 300 299 296 292 290 290 290 291 294 295 293 290 284 277 271 269 267 265 266 268 270 272 273 274 273 272 273 277 281 286 289 290 288 288 292 296 295 290 286 284 281 278 277 276 276 275 275 272 270 268 267 267 268 268 269 270 270 269 268 267 266 265 264 262 262 262 262 263 264 265 267 269 270 271 273 274 276 276 278 280 280
306 306 305 301 297 292 289 288 289 291 290 289 289 290 291 291 287 279 272 267 266 265 267 269 270 268 265 266 267 269 272 276 280 284 287 287 285 287 293 297 297 295 295 294 290 285 281 279 278 279 279 277 276 275 273 272 272 272 273 274 274 273 271 270 270 270 270 268 266 265 264 264 264 266 267 268 270 272 273 274 275 277 277 277 278
305 308 308 304 300 296 293 292 291 290 289 289 287 285 284 285 284 280 276 271 269 268 268 267 263 258 256 259 264 268 272 275 278 281 283 283 284 289 296 300 299 298 299 299 297 293 289 284 281 280 280 280 279 278 277 276 275 274 275 277 278 278 276 274 273 274 274 273 271 269 268 267 267 267 268 268 270 272 273 274 276 278 279 278 277
292 296 300 302 302 302 301 300 297 293 289 288 287 287 287 286 284 282 280 279 276 273 271 268 264 260 258 260 263 266 271 275 278 280 282 284 288 293 298 299 299 300 302 302 300 299 295 290 285 282 281 282 281 279 277 276 276 276 277 278 278 278 277 276 276 276 277 276 275 273 273 273 273 273 272 270 269 270 270 271 271 273 274 275 275
293 298 301 301 301 301 301 301 302 301 298 295 293 293 293 292 289 284 279 277 275 273 272 272 270 266 263 264 266 269 274 277 280 283 287 290 293 296 297 297 299 303 305 305 304 303 300 295 289 286 284 284 283 281 280 279 278 276 275 275 275 275 275 275 276 276 276 275 275 274 274 275 275 275 274 271 269 268 268 267 266 266 267 268 269
318 317 309 301 298 298 299 298 297 296 295 295 296 295 293 292 291 286 279 274 271 269 269 269 268 267 268 271 275 278 281 283 285 288 291 294 298 300 299 299 301 305 307 306 306 305 302 296 290 288 288 287 285 284 285 284 280 276 273 271 270 271 271 272 272 271 270 269 270 269 269 269 270 270 271 271 269 267 266 265 265 265 265 266 267
324 315 307 303 301 301 301 300 297 294 291 289 291 293 293 291 288 285 280 276 272 270 271 272 273 273 275 277 280 282 284 286 288 292 296 299 302 304 303 303 304 305 305 304 304 304 301 296 292 292 291 287 284 284 284 282 279 276 272 268 265 264 264 264 264 264 263 262 263 263 263 264 265 265 267 267 267 265 265 264 264 265 266 267 268
311 310 310 310 309 306 304 302 301 299 296 291 290 292 294 292 287 282 280 280 278 276 276 276 276 276 277 276 277 280 283 287 290 294 297 300 303 303 303 302 302 301 299 298 298 298 296 294 293 292 289 285 283 282 280 278 275 273 270 267 263 260 258 258 258 258 258 259 260 260 261 261 262 261 262 263 263 263 263 262 262 263 264 265 267
311 313 312 311 310 309 307 306 304 301 299 296 293 291 289 287 283 280 279 279 277 275 274 275 275 274 274 275 276 280 284 288 290 292 294 297 298 299 299 299 297 295 294 293 291 291 290 290 290 290 288 285 282 279 277 276 274 270 266 262 259 255 253 252 253 254 255 255 257 258 257 257 256 256 257 258 260 261 262 263 264 265 266 268 271